[[{"header":{"parameterUnit":"m.s-1","parameterCategory":1,"la1":30.2991,"la2":30.254,"lo1":-89.0895,"lo2":-89.0444,"dy":0.0017,"dx":0.0017,"nx":28,"ny":28,"refTime":"2024-02-16T03:00:00:Z","depth":0,"parameterNumber":2,"parameterNumberName":"U-component_of_WINDS"},"data":[0,0,0,0,0,0,0,0,0,0,0,0,0,0,0,0,0,0,0,0,0,0,0,0,0,0,0,0,0,0,0,0,0,0,0,0,0,0,0,0,0,0,0,0,0,0,0,0,0,0,0,0,0,0,0,0,0,0,0.0897,0.0897,0,0.0867,0.0866,0.0866,0.0864,0.0864,0.0864,0.0865,0.0831,0.083,0.0829,0,0,0,0,0,0,0,0,0,0,0,0,0,0.0951,0.095,0.0897,0.0897,0.0897,0.0867,0.0866,0.0866,0.0864,0.0864,0.0865,0.0865,0.0831,0.083,0.0828,0,0,0,0,0,0,0,0,0,0,0,0,0,0.0924,0.0949,0.0897,0.0892,0.0891,0.0867,0.0866,0.0866,0.0864,0.0864,0.0865,0.0865,0.0832,0.083,0.0828,0.0807,0,0,0.0823,0.0822,0,0,0,0,0,0,0,0,0.0926,0.0923,0.0893,0.0892,0.0891,0.087,0.0873,0.0846,0.0863,0.0874,0.0865,0.0865,0.0843,0.0841,0.0834,0.0805,0.0803,0.0822,0.0821,0.0821,0.082,0,0,0,0,0,0,0,0.0928,0.0924,0.0885,0.0893,0.0892,0.089,0.0887,0.0868,0.0856,0.0873,0.0873,0.0869,0.0843,0.0835,0.0833,0.0803,0.0823,0.0821,0.082,0.0819,0.0753,0.0752,0,0,0,0,0,0,0.0931,0.0925,0.0886,0.0884,0.091,0.0889,0.0885,0.0876,0.0856,0.0854,0.0869,0.0869,0.0838,0.0835,0.0832,0.0803,0.0821,0.0819,0.0818,0.0753,0.0753,0.0752,0,0,0,0,0,0,0.0932,0.0928,0.0887,0.0905,0.0899,0.0887,0.0877,0.0875,0.0868,0.0853,0.0851,0.0864,0.0838,0.0834,0.0812,0.0802,0.0818,0.0816,0.0754,0.0753,0.0752,0.0748,0,0,0,0,0,0,0.0934,0.0928,0.0921,0.0905,0.0899,0.087,0.0876,0.0874,0.0865,0.0865,0.0848,0.0845,0.0839,0.0815,0.0811,0.08,0.0815,0.0755,0.0754,0.0753,0.0749,0.0747,0.0745,0,0,0,0,0,0.0936,0.092,0.092,0.0915,0.0889,0.0869,0.0866,0.0859,0.0864,0.0856,0.0846,0.0846,0.0804,0.0813,0.0808,0.0796,0.0756,0.0754,0.0753,0.0749,0.0747,0.0745,0,0,0,0,0,0,0.0935,0.0918,0.0918,0.0897,0.0885,0.0869,0.0858,0.0857,0.0842,0.0843,0.0835,0.0831,0.0809,0.0801,0.0811,0.0773,0.078,0.0778,0.078,0.0777,0.0775,0.0777,0.0813,0,0,0,0,0,0.0932,0.0919,0.0905,0.0888,0.0881,0.0871,0.0862,0.0858,0.0845,0.0839,0.0828,0.0814,0.0798,0.0787,0.0771,0.0748,0.0743,0.0737,0.0735,0.0734,0.0731,0.0716,0.0713,0.0747,0.0747,0.0747,0,0,0.0927,0.0916,0.0908,0.0887,0.0877,0.0862,0.0867,0.0851,0.0839,0.0836,0.0815,0.0806,0.079,0.0767,0.0756,0.0759,0.0721,0.0732,0.0731,0.0729,0.0714,0.0711,0.0708,0.0746,0.0746,0.0746,0,0,0.0909,0.09,0.0884,0.0874,0.0859,0.0852,0.0848,0.0832,0.0826,0.0805,0.0802,0.0787,0.076,0.0748,0.0738,0.0714,0.0713,0.0709,0.0699,0.0684,0.0682,0.0679,0.0669,0.0666,0.0707,0.0707,0.0707,0,0.0904,0.0882,0.0876,0.086,0.085,0.0848,0.083,0.082,0.08,0.0793,0.0797,0.0761,0.075,0.0723,0.0717,0.071,0.0704,0.0711,0.0683,0.068,0.0678,0.0668,0.0664,0.0707,0.0707,0.0707,0.0707,0,0.0875,0.086,0.0849,0.083,0.0819,0.0802,0.0792,0.0782,0.0778,0.077,0.0748,0.0734,0.0715,0.0708,0.0705,0.068,0.0682,0.0685,0.0691,0.0674,0.0665,0.0661,0.0706,0.0706,0.0706,0.0707,0,0,0.0856,0.0834,0.0829,0.082,0.0803,0.079,0.0772,0.0754,0.0744,0.073,0.0714,0.069,0.0692,0.0681,0.0676,0.0663,0.0643,0.0667,0.0666,0.0661,0.0613,0.061,0.0606,0.0642,0.0641,0.0641,0.0613,0,0.0835,0.0805,0.0798,0.0772,0.0756,0.0753,0.0738,0.0725,0.0716,0.0701,0.0692,0.0674,0.0679,0.0672,0.0659,0.0648,0.0633,0.065,0.0625,0.0625,0.0628,0.0601,0.0599,0.0574,0.061,0.0609,0.0609,0,0.0806,0.0792,0.0764,0.0747,0.074,0.0726,0.0708,0.0694,0.0678,0.0673,0.066,0.0656,0.0636,0.0645,0.0616,0.0628,0.0617,0.061,0.0609,0.0605,0.0615,0.0595,0.0566,0.0561,0.0603,0.0604,0.0604,0,0.0793,0.0767,0.0746,0.0738,0.0719,0.0709,0.07,0.0685,0.0673,0.0657,0.065,0.0631,0.0621,0.0606,0.0596,0.0603,0.0567,0.0575,0.0561,0.0561,0.0553,0.0553,0.052,0.0548,0.0548,0.0548,0.0548,0,0.077,0.0752,0.074,0.0727,0.0706,0.0699,0.0679,0.0669,0.0656,0.064,0.0636,0.0621,0.061,0.0593,0.0586,0.0562,0.0557,0.0551,0.0549,0.0551,0.0551,0.0543,0.0544,0.0547,0.0548,0.0548,0.0548,0,0.0751,0.0743,0.0719,0.0703,0.0698,0.0683,0.0668,0.0655,0.0646,0.0626,0.0621,0.0607,0.0587,0.0576,0.055,0.0545,0.0518,0.0518,0.0523,0.0522,0.0508,0.0509,0.0466,0.046,0.0494,0.0494,0.0494,0,0.0736,0.0723,0.0704,0.0694,0.0685,0.0668,0.0656,0.0648,0.0636,0.0616,0.0604,0.0584,0.0567,0.0534,0.0521,0.0501,0.0499,0.0486,0.0496,0.0498,0.0497,0.0497,0.0495,0.0484,0.0483,0.0483,0.0483,0,0.071,0.0706,0.069,0.0672,0.0659,0.0644,0.063,0.0621,0.061,0.0596,0.0576,0.0562,0.0536,0.0515,0.0494,0.0483,0.048,0.048,0.0475,0.0476,0.0479,0.0475,0.0517,0.048,0.0481,0.0481,0.0481,0.0481,0.0692,0.0679,0.0664,0.0646,0.0634,0.062,0.0606,0.0596,0.0579,0.0557,0.0553,0.053,0.0513,0.0484,0.0473,0.0454,0.0457,0.045,0.0448,0.0447,0.0445,0.0483,0.045,0.045,0.045,0.045,0.045,0,0.0664,0.0654,0.0637,0.0617,0.0602,0.0602,0.0586,0.0573,0.0554,0.0538,0.0522,0.0497,0.0476,0.0461,0.0439,0.0427,0.0425,0.0421,0.0422,0.0419,0.0445,0.045,0.0423,0.0423,0.0423,0.0423,0.0423,0.0423,0.0648,0.0625,0.0619,0.059,0.058,0.0559,0.0549,0.0535,0.0523,0.0496,0.0479,0.0469,0.0453,0.043,0.0411,0.0407,0.0398,0.0394,0.039,0.0414,0.0417,0.042,0.0425,0.0393,0.0393,0.0365,0.0365,0.0365]},{"header":{"parameterUnit":"m.s-1","parameterCategory":1,"la1":30.2991,"la2":30.254,"lo1":-89.0895,"lo2":-89.0444,"dy":0.0017,"dx":0.0017,"nx":28,"ny":28,"refTime":"2024-02-16T03:00:00:Z","depth":0,"parameterNumber":3,"parameterNumberName":"V-component_of_WINDS"},"data":[0,0,0,0,0,0,0,0,0,0,0,0,0,0,0,0,0,0,0,0,0,0,0,0,0,0,0,0,0,0,0,0,0,0,0,0,0,0,0,0,0,0,0,0,0,0,0,0,0,0,0,0,0,0,0,0,0,0,1.2569,1.2569,0,1.2582,1.2582,1.2582,1.2544,1.2543,1.2542,1.2541,1.2553,1.2554,1.2556,0,0,0,0,0,0,0,0,0,0,0,0,0,1.251,1.2512,1.2569,1.2569,1.2569,1.2582,1.2582,1.2582,1.2545,1.2543,1.2542,1.254,1.2552,1.2554,1.2556,0,0,0,0,0,0,0,0,0,0,0,0,0,1.2531,1.2512,1.2569,1.2552,1.2551,1.2582,1.2582,1.2582,1.2545,1.2543,1.2541,1.254,1.2552,1.2554,1.2556,1.2604,0,0,1.2562,1.2563,0,0,0,0,0,0,0,0,1.253,1.2533,1.2554,1.2553,1.2552,1.256,1.2566,1.2589,1.2545,1.2547,1.2541,1.2539,1.2556,1.2558,1.2564,1.2604,1.2605,1.2563,1.2564,1.2565,1.2565,0,0,0,0,0,0,0,1.2528,1.2532,1.2574,1.2555,1.2553,1.2543,1.2544,1.257,1.2561,1.2547,1.2544,1.2546,1.2555,1.2562,1.2564,1.2605,1.2562,1.2564,1.2566,1.2566,1.2686,1.2688,0,0,0,0,0,0,1.2529,1.2531,1.2574,1.2574,1.2536,1.2546,1.2547,1.2559,1.2561,1.256,1.2548,1.2544,1.256,1.2562,1.2565,1.2622,1.2565,1.2567,1.2568,1.2684,1.2686,1.2689,0,0,0,0,0,0,1.2528,1.2533,1.2573,1.2552,1.2556,1.2549,1.2562,1.256,1.2567,1.2562,1.256,1.2557,1.2558,1.2562,1.2595,1.2622,1.2568,1.2569,1.2682,1.2685,1.2687,1.2737,0,0,0,0,0,0,1.2527,1.2533,1.2552,1.2553,1.2558,1.2604,1.2564,1.2562,1.2571,1.2567,1.2569,1.2568,1.2557,1.2592,1.2597,1.2624,1.2571,1.2679,1.2683,1.2687,1.2733,1.2741,1.2748,0,0,0,0,0,1.2525,1.2564,1.2553,1.2558,1.2581,1.2605,1.2608,1.2595,1.2573,1.2592,1.2588,1.2568,1.2618,1.2595,1.2601,1.2629,1.2678,1.2682,1.2686,1.2729,1.2739,1.2748,0,0,0,0,0,0,1.2566,1.2564,1.2551,1.2592,1.2599,1.2599,1.2622,1.2606,1.2618,1.2614,1.2597,1.2598,1.2634,1.2634,1.261,1.2676,1.2644,1.265,1.2675,1.2684,1.2692,1.2692,1.2573,0,0,0,0,0,1.2579,1.26,1.2597,1.2634,1.2638,1.2629,1.2639,1.2629,1.2635,1.2638,1.2637,1.2643,1.266,1.2672,1.2687,1.2732,1.2732,1.2754,1.2761,1.2768,1.2773,1.2798,1.2808,1.2703,1.2703,1.2703,0,0,1.2608,1.261,1.2624,1.2642,1.2646,1.2668,1.2632,1.2656,1.2672,1.2641,1.2673,1.2672,1.2678,1.2718,1.2735,1.2719,1.2802,1.2773,1.2778,1.278,1.2804,1.2814,1.2823,1.2706,1.2705,1.2705,0,0,1.2673,1.2675,1.2707,1.2712,1.2719,1.2713,1.2721,1.2722,1.2721,1.2753,1.2731,1.2749,1.2778,1.2784,1.2791,1.2858,1.284,1.2863,1.2904,1.2928,1.2937,1.2944,1.2969,1.2979,1.2868,1.2868,1.2868,0,1.2708,1.274,1.2725,1.2751,1.2761,1.2734,1.2766,1.2771,1.2783,1.2789,1.2771,1.2809,1.281,1.2852,1.2868,1.2874,1.2883,1.2863,1.2937,1.2944,1.295,1.2975,1.2984,1.2871,1.2871,1.287,1.287,0,1.2783,1.2806,1.2831,1.2844,1.2855,1.2884,1.2874,1.2887,1.2875,1.2871,1.2904,1.2906,1.2922,1.293,1.2918,1.297,1.296,1.2939,1.2908,1.2964,1.2986,1.2995,1.2875,1.2874,1.2873,1.2873,0,0,1.2875,1.2879,1.2889,1.2895,1.2901,1.2918,1.2945,1.2962,1.2974,1.2982,1.3006,1.3032,1.3013,1.3021,1.3009,1.3031,1.3086,1.3008,1.3008,1.3024,1.3145,1.3162,1.3173,1.3074,1.3075,1.3077,1.3145,0,1.2939,1.2988,1.2976,1.3024,1.3046,1.3021,1.3045,1.3051,1.3048,1.3065,1.3061,1.3081,1.3053,1.3058,1.3078,1.3075,1.311,1.307,1.3096,1.3097,1.3098,1.3184,1.3202,1.3267,1.3153,1.3155,1.3156,0,1.3022,1.3035,1.3086,1.3089,1.3098,1.312,1.3135,1.3151,1.3158,1.3154,1.3163,1.3147,1.3175,1.3141,1.318,1.3152,1.3162,1.3162,1.3164,1.3168,1.3132,1.3192,1.3287,1.3298,1.3169,1.3168,1.3167,0,1.3086,1.3116,1.3151,1.3156,1.316,1.3177,1.3179,1.3184,1.3195,1.3207,1.3214,1.3229,1.3238,1.3249,1.3239,1.3215,1.3279,1.3244,1.3278,1.3278,1.3294,1.3293,1.3394,1.3297,1.3297,1.3296,1.3296,0,1.3161,1.3194,1.318,1.3201,1.3237,1.3222,1.3258,1.3257,1.3262,1.3283,1.3261,1.3281,1.3265,1.3283,1.3275,1.3309,1.3312,1.331,1.3308,1.3314,1.3314,1.3321,1.3317,1.3299,1.3298,1.3298,1.3298,0,1.3239,1.3231,1.3268,1.3269,1.327,1.3297,1.3298,1.3318,1.3313,1.334,1.3345,1.3337,1.3358,1.3348,1.337,1.3364,1.3408,1.3399,1.3407,1.3405,1.344,1.3438,1.355,1.3565,1.3456,1.3457,1.3458,0,1.3289,1.3314,1.3318,1.3331,1.3335,1.3356,1.3367,1.3353,1.3365,1.3375,1.3394,1.3413,1.3428,1.3463,1.3459,1.3476,1.3468,1.3506,1.347,1.3476,1.3471,1.3471,1.3474,1.3514,1.3515,1.3516,1.3517,0,1.3378,1.3373,1.339,1.3407,1.3421,1.3433,1.3443,1.3455,1.3441,1.3456,1.3478,1.349,1.3512,1.3532,1.3547,1.3549,1.3531,1.3528,1.3537,1.3544,1.3549,1.3549,1.3429,1.3526,1.3525,1.3524,1.3524,1.3524,1.3445,1.3466,1.3473,1.3494,1.35,1.351,1.3529,1.3527,1.3545,1.3563,1.3553,1.3579,1.3585,1.3603,1.3607,1.3627,1.3612,1.3625,1.3628,1.3632,1.3638,1.3544,1.363,1.3629,1.3629,1.3629,1.3629,0,1.3535,1.3538,1.3557,1.3572,1.3589,1.357,1.3581,1.3596,1.3619,1.3626,1.3642,1.3667,1.3686,1.3684,1.3702,1.3718,1.3711,1.3723,1.3723,1.3724,1.3649,1.3641,1.3729,1.3729,1.3729,1.3729,1.3729,1.3729,1.3584,1.362,1.3616,1.3654,1.3657,1.3683,1.3691,1.37,1.3706,1.3736,1.3752,1.375,1.3754,1.3772,1.3789,1.3788,1.3796,1.3812,1.3809,1.3739,1.3729,1.372,1.3712,1.3814,1.3814,1.3882,1.3883,1.3883]}]]